FW0663 Weather Reports


time (UTC)temp
C
wind
direction
speed
KPH
gust
KPH
rain 1hr
cm
rain 24hr
cm
rain mn
cm
humidity
%
barometer
mb
20260506001548 26 342 6.4 12.9 0.00 0.00 0.00 25 1010.6
20260506000113 26 333 3.2 14.5 0.00 0.00 0.00 26 1010.6
20260505234551 26 315 11.3 19.3 0.00 0.00 0.00 27 1010.6
20260505233045 25 327 8.0 16.1 0.00 0.00 0.00 29 1010.8
20260505231548 25 344 8.0 14.5 0.00 0.00 0.00 28 1010.7
20260505230101 25 52 4.8 11.3 0.00 0.00 0.00 29 1010.7
20260505224545 26 15 8.0 17.7 0.00 0.00 0.00 28 1010.7
20260505223043 25 303 6.4 17.7 0.00 0.00 0.00 27 1010.7
20260505221549 26 325 6.4 16.1 0.00 0.00 0.00 26 1010.8
20260505220044 26 321 4.8 19.3 0.00 0.00 0.00 26 1010.8
20260505214542 26 318 11.3 20.9 0.00 0.00 0.00 27 1011.0
20260505213040 26 343 3.2 17.7 0.00 0.00 0.00 28 1011.0
20260505211541 26 329 6.4 22.5 0.00 0.00 0.00 26 1011.0
20260505210038 26 321 6.4 22.5 0.00 0.00 0.00 28 1010.9
20260505204545 25 175 3.2 16.1 0.00 0.00 0.00 33 1010.9
20260505203037 25 340 6.4 17.7 0.00 0.00 0.00 36 1011.0
20260505201533 25 330 6.4 17.7 0.00 0.00 0.00 36 1011.2
20260505200031 24 290 8.0 20.9 0.00 0.00 0.00 39 1011.3
20260505194534 24 342 4.8 12.9 0.00 0.00 0.00 39 1011.5
20260505193027 23 142 3.2 16.1 0.00 0.00 0.00 39 1011.7
20260505191525 23 346 1.6 12.9 0.00 0.00 0.00 39 1011.8
20260505190022 22 281 4.8 12.9 0.00 0.00 0.00 41 1012.0
20260505184524 21 333 3.2 11.3 0.00 0.00 0.00 43 1012.1
20260505183019 21 275 4.8 11.3 0.00 0.00 0.00 44 1012.1
20260505181515 21 284 4.8 16.1 0.00 0.00 0.00 44 1012.2
20260505180013 20 281 1.6 9.7 0.00 0.00 0.00 45 1012.2
20260505174510 20 254 4.8 9.7 0.00 0.00 0.00 46 1012.2
20260505173008 19 317 1.6 8.0 0.00 0.00 0.00 47 1012.4
20260505171504 18 289 1.6 9.7 0.00 0.00 0.00 49 1012.4
20260505170100 17 16 1.6 6.4 0.00 0.00 0.00 51 1012.4
20260505164604 17 268 1.6 4.8 0.00 0.00 0.00 53 1012.5
20260505163057 16 243 1.6 9.7 0.00 0.00 0.00 54 1012.6
20260505161555 16 213 0.0 3.2 0.00 0.00 0.00 55 1012.7
20260505153042 13 81 1.6 4.8 0.00 0.00 0.00 60 1012.9
20260505151539 12 92 1.6 4.8 0.00 0.00 0.00 61 1012.9
20260505124538 4 109 1.6 3.2 0.00 0.00 0.00 79 1011.8
20260505123019 5 97 1.6 4.8 0.00 0.00 0.00 75 1011.8
20260505121529 6 105 0.0 3.2 0.00 0.00 0.00 75 1011.6
20260505120016 6 118 0.0 3.2 0.00 0.00 0.00 75 1011.4
20260505114515 6 113 1.6 4.8 0.00 0.00 0.00 75 1011.4
20260505113014 6 111 1.6 4.8 0.00 0.00 0.00 74 1011.3
20260505111512 6 114 1.6 4.8 0.00 0.00 0.00 72 1011.3
20260505101508 5 107 1.6 3.2 0.00 0.00 0.00 75 1011.0
20260505100016 6 100 1.6 6.4 0.00 0.00 0.00 73 1010.9
20260505094501 7 96 1.6 3.2 0.00 0.00 0.00 68 1010.9
20260505093100 7 108 0.0 3.2 0.00 0.00 0.00 67 1010.9
20260505091617 8 131 1.6 3.2 0.00 0.00 0.00 67 1010.8
20260505090101 8 109 0.0 4.8 0.00 0.00 0.00 67 1010.8
20260505084555 8 102 0.0 4.8 0.00 0.00 0.00 65 1010.8
20260505083054 8 102 1.6 4.8 0.00 0.00 0.00 65 1010.8
20260505081550 8 92 1.6 4.8 0.00 0.00 0.00 63 1010.7
20260505080052 9 105 1.6 4.8 0.00 0.00 0.00 60 1010.7
20260505074543 10 107 0.0 4.8 0.00 0.00 0.00 58 1010.7
20260505073053 11 308 0.0 3.2 0.00 0.00 0.00 52 1010.6
20260505071542 11 311 0.0 3.2 0.00 0.00 0.00 50 1010.6
20260505070037 12 238 0.0 3.2 0.00 0.00 0.00 47 1010.5
20260505064534 13 338 0.0 3.2 0.00 0.00 0.00 46 1010.3
20260505063045 13 182 0.0 0.0 0.00 0.00 0.00 44 1010.3
20260505061538 15 9 0.0 4.8 0.00 0.00 0.00 42 1010.3
20260505060033 14 246 0.0 6.4 0.00 0.00 0.00 43 1010.3
20260505054543 15 211 0.0 3.2 0.00 0.00 0.00 43 1010.2
20260505053037 16 339 0.0 3.2 0.00 0.00 0.00 40 1010.1
20260505051539 16 171 0.0 6.4 0.00 0.00 0.00 38 1010.1
20260505041544 19 323 6.4 20.9 0.00 0.00 0.00 33 1009.1
20260505040030 19 9 3.2 20.9 0.00 0.00 0.00 34 1008.9
20260505034530 20 315 11.3 19.3 0.00 0.00 0.00 32 1008.7
20260505033030 20 301 8.0 20.9 0.00 0.00 0.00 31 1008.4
20260505031537 20 335 8.0 19.3 0.00 0.00 0.00 31 1008.3
20260505030032 21 331 8.0 19.3 0.00 0.00 0.00 31 1008.0
20260505024529 22 315 8.0 17.7 0.00 0.00 0.00 30 1007.7
20260505023030 22 355 9.7 20.9 0.00 0.00 0.00 28 1007.5
20260505021529 23 344 12.9 24.1 0.00 0.00 0.00 28 1007.2
20260505020038 25 333 9.7 19.3 0.00 0.00 0.00 24 1007.1
20260505014527 25 298 6.4 17.7 0.00 0.00 0.00 24 1007.1
20260505013026 25 9 6.4 14.5 0.00 0.00 0.00 24 1007.1
20260505011526 25 317 8.0 17.7 0.00 0.00 0.00 24 1007.2
20260505010025 26 351 6.4 19.3 0.00 0.00 0.00 25 1007.3
20260505004524 25 334 8.0 17.7 0.00 0.00 0.00 25 1007.2
20260505003028 25 334 8.0 20.9 0.00 0.00 0.00 27 1007.3